Weather History for CYVR - October, 2012

Change the Weather History Date:

Monday, October 8, 2012

  Actual Average Record
Temperature  
Mean Temperature 54 °F -  
Max Temperature 63 °F 55 °F 63 °F (2012)
Min Temperature 44 °F 46 °F 42 °F (2007)
Degree Days  
Heating Degree Days 12    
Growing Degree Days 4 (Base 50)    
Moisture  
Dew Point 46 °F    
Average Humidity 74    
Maximum Humidity 93    
Minimum Humidity 45    
Precipitation  
Precipitation 0.00 in - - ()
Sea Level Pressure  
Sea Level Pressure 29.96 in    
Wind  
Wind Speed 2 mph ()    
Max Wind Speed 7 mph    
Max Gust Speed -    
Visibility 19.8 miles    
Events Fog    
Averages and records for this station are not official NWS values.
T = Trace of Precipitation, MM = Missing Value Source: Averaged Metar Reports

Daily Weather History Graph

Daily Weather History Graph

Search for Another Location

Airport or City:

Trip Planner

Search our weather history database for the weather conditions in past years. The results will help you decide how hot, cold, wet, or windy it might be!

Date:

Astronomy

Oct. 08, 2012 Rise Set
Actual Time 7:23 AM PDT 6:35 PM PDT
Civil Twilight 6:51 AM PDT 7:07 PM PDT
Nautical Twilight 6:15 AM PDT 7:43 PM PDT
Astronomical Twilight 5:37 AM PDT 8:20 PM PDT
Moon No Moon Rise 3:00 PM PDT (10/8)
Length of Visible Light 12h 15m
Length of Day
11h 11m
Last Quarter, 45% of the Moon is Illuminated
Oct 8
Last Quarter
Oct 15
New
Oct 21
First Quarter
Oct 29
Full
Nov 6
Last Quarter

Hourly Weather History & Observations

Time (PDT) Temp. Windchill Dew Point Humidity Pressure Visibility Wind Dir Wind Speed Gust Speed Precip Events Conditions
12:00 AM 50.0 °F - 44.6 °F 82% 29.95 in 20.0 mi North 2.3 mph - N/A   Clear
1:00 AM 50.0 °F - 44.6 °F 82% 29.95 in 20.0 mi ESE 2.3 mph - N/A   Clear
2:00 AM 50.0 °F - 44.6 °F 82% 29.95 in 20.0 mi Calm Calm - N/A   Clear
3:00 AM 48.2 °F - 44.6 °F 87% 29.95 in 20.0 mi East 2.3 mph - N/A   Clear
4:00 AM 46.4 °F - 44.6 °F 93% 29.94 in 20.0 mi SE 2.3 mph - N/A   Clear
5:00 AM 46 °F - 43 °F 87% 29.95 in 19 mi NE 2.3 mph - -  
5:00 AM 46.4 °F - 42.8 °F 87% 29.95 in 20.0 mi NE 2.3 mph - N/A   Clear
6:00 AM 44.6 °F - 41.0 °F 87% 29.95 in 20.0 mi Calm Calm - N/A   Clear
7:00 AM 44.6 °F 43.1 °F 42.8 °F 93% 29.95 in 20.0 mi East 3.5 mph - N/A Fog Shallow Fog
8:00 AM 46.4 °F - 44.6 °F 93% 29.96 in 30.0 mi Calm Calm - N/A Fog Shallow Fog
9:00 AM 51.8 °F - 48.2 °F 88% 29.96 in 30.0 mi Calm Calm - N/A   Partly Cloudy
10:00 AM 57.2 °F - 50.0 °F 77% 29.98 in 30.0 mi WSW 3.5 mph - N/A   Partly Cloudy
11:00 AM 59 °F - 49 °F 61% 29.98 in 28 mi WSW 5.8 mph - -   Clear
11:00 AM 59.0 °F - 50.0 °F 72% 29.98 in 30.0 mi WSW 5.8 mph - N/A   Scattered Clouds
12:00 PM 60.8 °F - 48.2 °F 63% 29.98 in 30.0 mi WNW 4.6 mph - N/A   Scattered Clouds
1:00 PM 60.8 °F - 46.4 °F 59% 29.98 in 30.0 mi WSW 5.8 mph - N/A   Scattered Clouds
2:00 PM 62.6 °F - 46.4 °F 55% 29.96 in 30.0 mi WNW 5.8 mph - N/A   Scattered Clouds
3:00 PM 62.6 °F - 46.4 °F 55% 29.95 in 30.0 mi West 6.9 mph - N/A   Scattered Clouds
4:00 PM 62.6 °F - 48.2 °F 59% 29.95 in 30.0 mi NW 4.6 mph - N/A   Partly Cloudy
5:00 PM 63 °F - 47 °F 45% 29.94 in 28 mi WNW 3.5 mph - -   Clear
5:00 PM 62.6 °F - 46.4 °F 55% 29.94 in 30.0 mi WNW 3.5 mph - N/A   Partly Cloudy
6:00 PM 60.8 °F - 46.4 °F 59% 29.94 in 30.0 mi Calm Calm - N/A   Partly Cloudy
7:00 PM 57.2 °F - 48.2 °F 72% 29.95 in 30.0 mi Calm Calm - N/A   Partly Cloudy
8:00 PM 55.4 °F - 44.6 °F 67% 29.95 in 30.0 mi Calm Calm - N/A   Partly Cloudy
9:00 PM 53.6 °F - 46.4 °F 77% 29.97 in 30.0 mi East 4.6 mph - N/A   Partly Cloudy
10:00 PM 51.8 °F - 46.4 °F 82% 29.98 in 20.0 mi East 4.6 mph - N/A   Partly Cloudy
11:00 PM 53 °F - 48 °F 77% 30.00 in 19 mi East 3.5 mph - -   Clear
11:00 PM 53.6 °F - 48.2 °F 82% 30.00 in 20.0 mi East 3.5 mph - N/A   Partly Cloudy